Location: Brompton
(51.4000°N, 0.5333°E)
Time: 14:35:54
(UTC+00:00)

Lacrosse 5 - Pass Details

Date: 11 May 2021
Orbit: 715 x 724 km, 57.0° (Epoch: 15 June)

Event Time Altitude Azimuth Distance (km) Brightness Sun altitude
Exits shadow 23:54:45 15° 114° (ESE) 1,885 3.8 -20.5°
Drops below altitude 10° 23:56:57 10° 88° (E) 2,203 4.4 -20.5°
Sets 00:00:16 0° 66° (ENE) 3,130 5.5 -20.4°
